Regional Weather Roundup
Issued by NWS Northern Indiana

Home | Current Version | Previous Version | Graphics & Text | Print | Product List | Glossary On
Versions: 1 2 3 4 5 6 7 8 9 10 11 12 13 14 15 16 17 18 19 20 21 22 23 24 25 26 27 28 29 30 31 32 33 34 35 36 37 38 39 40 41 42 43 44 45 46 47 48 49 50
000
ASUS43 KIWX 261600
RWRIWX

KIWX WEATHER ROUNDUP
NATIONAL WEATHER SERVICE NORTHERN INDIANA
1200 PM EDT MON SEP 26 2016

NOTE: "FAIR" INDICATES FEW OR NO CLOUDS BELOW 12,000 FEET WITH NO
SIGNIFICANT WEATHER AND/OR OBSTRUCTIONS TO VISIBILITY.

* THESE STATIONS ARE NOT UNDER NWS QUALITY CONTROL. THEY ALSO MAY NOT
  REPORT WEATHER SUCH AS PRECIPITATION OR FOG.

INZ001>027-261700-
NORTHERN INDIANA

CITY           SKY/WX    TMP DP  RH WIND       PRES   REMARKS
GARY*          MOSUNNY   68  43  40 W20G32    30.01F
SOUTH BEND     MOSUNNY   63  51  65 W16       29.99F
ELKHART*       SUNNY    N/A N/A N/A W14       29.97F
GOSHEN         CLOUDY    62  53  72 W13       29.99S
ANGOLA*          N/A     61  52  72 W7        29.98S
FORT WAYNE     CLOUDY    61  54  77 W13G21    30.02R
PERU/GRISSOM   MOSUNNY   61  55  78 W13G21    30.03S

$$
INZ028>050-261700-
CENTRAL INDIANA

CITY           SKY/WX    TMP DP  RH WIND       PRES   REMARKS
LAFAYETTE      CLOUDY    61  53  75 W9        30.07S
MUNCIE*        CLOUDY    62  55  77 W8        30.06R
INDIANAPOLIS   CLOUDY    61  54  77 W12       30.09R

$$
MIZ043>046-050>051-056>058-064>065-071>073-077>080-261700-
SOUTHWEST LOWER MICHIGAN

CITY           SKY/WX    TMP DP  RH WIND       PRES   REMARKS
BATTLE CREEK   CLOUDY    61  53  75 SW13      29.94F
BENTON HARBOR  SUNNY     67  45  45 W20G31    29.96S
COLDWATER*     CLOUDY    61  53  75 W12G18    29.96S
HILLSDALE*     CLOUDY    59  52  77 W12G18    29.96R
HOLLAND        MOSUNNY   65  47  52 W20G30    29.93S
GRAND RAPIDS   PTSUNNY   64  46  52 W18G30    29.90F
KALAMAZOO      CLOUDY    63  48  58 W16G23    29.95F
STURGIS*       CLOUDY    62  53  72 W9G23     29.96F
THREE RIVERS*  FAIR      63  52  68 W9G17     29.96F

$$
OHZ001>008-015>018-024>025-261700-
NORTHWEST OHIO

CITY           SKY/WX    TMP DP  RH WIND       PRES   REMARKS
DEFIANCE       PTSUNNY   64  55  72 W10G18    29.99R
FINDLAY        CLOUDY    63  57  81 W16G22    29.96F
TOLEDO EXPRESS CLOUDY    62  61  96 W14       29.95R
TOLEDO METCALF CLOUDY    63  60  90 W12       29.94F
LIMA           CLOUDY    60  58  92 W14       30.01R

$$
AND FOR LAKE MICHIGAN COASTAL AND OPEN LAKE BUOY OBSERVATIONS

STATION/POSITION TEMP    WIND        PRES    VSBY  WAVE
                 AIR SEA DIR/SP/G                  HT/PER
                 (F)     (DEG/KT/KT) (MB)    (MI)  (FT/S)
CALUMET HARBOR    66     230/  9/ 14 1015.3F
MICHIGAN CITY     62     230/ 19/ 22   N/A
BURNS HARBOR      64     270/ 19/ 22 1016.3F
SAINT JOSEPH      65     270/ 18/ 26 1015.6
SOUTH LAKE BUOY   61 71  250/ 21/ 25 1013.1          5/ 5
4 MI NW BRIDGMAN  64 65  270/ 17/ 23 1014.7F         7/ 6
MICHIGAN CITY     64 66  260/ 17/ 23   N/A           5/ 5

$$
&&




USA.gov is the U.S. government's official web portal to all federal, state and local government web resources and services.